Location: Aalen
(48.8330°N, 10.1000°E)
Time: 15:25:18
(UTC+02:00)

UNISAT 6 - Pass Details

Date: 01 April 2023
Orbit: 600 x 680 km, 97.7° (Epoch: 28 May)

Event Time Altitude Azimuth Distance (km) Brightness Sun altitude
Rises 05:36:41 0° 154° (SSE) 2,918 ? -13.7°
Reaches altitude 10° 05:38:52 10° 150° (SSE) 2,028 ? -13.4°
Maximum altitude 05:43:13 58° 72° (ENE) 760 ? -12.7°
Drops below altitude 10° 05:47:42 10° 354° (N) 2,093 ? -12.1°
Sets 05:49:59 0° 350° (N) 3,021 ? -11.7°
